Location: Newark
(33.9035°S, 18.4112°E)
Time: 09:27:23
(UTC+00:00)

STARLINK-1097 - Pass Details

Date: 21 January 2020
Orbit: 529 x 531 km, 53.0° (Epoch: 18 February)

Event Time Altitude Azimuth Distance (km) Brightness Sun altitude
Rises 12:39:33 0° 262° (W) 2,682 7.4 63.5°
Enters shadow 13:10:19 -49° 34° (NE) 9,906 9.5 57.5°
Exits shadow 13:45:51 -56° 191° (SSW) 11,032 9.8 50.3°
